This demonstration page uses our WeatherBlox Daily Observations layout. Learn more.

Left ArrowRight Arrow

53.62937, 11.41316

Hourly Observations for November 24, 2022

Temp ( °F °C ) Dew Point ( °F °C ) Humidity (%) Winds ( mph kmh ) Pressure ( in mb ) Visibility ( mi km ) Precip ( " mm )
12:20 am 00:20 Mostly Cloudy 39 4 37 3 93 93 SE 5 7 29.65 1004 6 10 0.00 0.00
12:50 am 00:50 Mostly Clear 39 4 37 3 93 93 SSE 6 9 29.65 1004 6 10 0.00 0.00
1:20 am 01:20 Mostly Cloudy 39 4 37 3 93 93 SSE 6 9 29.65 1004 6 10 0.00 0.00
1:50 am 01:50 Cloudy 39 4 37 3 93 93 S 6 9 29.65 1004 6 10 0.00 0.00
2:20 am 02:20 Cloudy 39 4 37 3 93 93 S 7 11 29.65 1004 6 10 0.00 0.00
2:50 am 02:50 Cloudy 39 4 37 3 93 93 S 6 9 29.68 1005 6 10 0.00 0.00
3:20 am 03:20 Cloudy 39 4 37 3 93 93 SSE 6 9 29.68 1005 6 10 0.00 0.00
3:50 am 03:50 Cloudy 39 4 37 3 93 93 S 6 9 29.68 1005 6 10 0.00 0.00
4:20 am 04:20 Cloudy 39 4 37 3 93 93 SSE 5 7 29.68 1005 6 10 0.00 0.00
4:50 am 04:50 Cloudy 39 4 39 4 100 100 S 6 9 29.68 1005 6 10 0.00 0.00
5:20 am 05:20 Cloudy 39 4 39 4 100 100 SSE 6 9 29.68 1005 6 10 0.00 0.00
5:50 am 05:50 Cloudy 39 4 39 4 100 100 S 3 6 29.71 1006 6 10 0.00 0.00
6:20 am 06:20 Cloudy 41 5 39 4 93 93 S 5 7 29.71 1006 6 10 0.00 0.00
6:50 am 06:50 Cloudy 41 5 39 4 93 93 S 5 7 29.71 1006 6 10 0.00 0.00
7:20 am 07:20 Cloudy 41 5 39 4 93 93 SSE 6 9 29.74 1007 6 10 0.00 0.00
7:50 am 07:50 Cloudy 41 5 39 4 93 93 SSE 7 11 29.74 1007 6 10 0.00 0.00
8:20 am 08:20 Cloudy 41 5 39 4 93 93 SSE 7 11 29.74 1007 6 10 0.00 0.00
8:50 am 08:50 Cloudy 41 5 39 4 93 93 S 5 7 29.77 1008 6 10 0.00 0.00
9:20 am 09:20 Cloudy 41 5 39 4 93 93 S 5 7 29.77 1008 6 10 0.00 0.00
9:50 am 09:50 Cloudy 41 5 41 5 100 100 VRB 5 7 29.77 1008 6 10 0.00 0.00
10:20 am 10:20 Mostly Cloudy 43 6 41 5 93 93 S 5 7 29.77 1008 6 10 0.00 0.00
10:50 am 10:50 Cloudy 43 6 41 5 93 93 S 5 7 29.80 1009 6 10 0.00 0.00
11:20 am 11:20 Cloudy 43 6 41 5 93 93 S 5 7 29.80 1009 6 10 0.00 0.00
11:50 am 11:50 Cloudy with Light Rain 45 7 41 5 87 87 SSE 3 6 29.80 1009 6 10 0.00 0.00
12:20 pm 12:20 Cloudy 45 7 43 6 93 93 S 3 6 29.80 1009 6 10 0.00 0.00
12:50 pm 12:50 Cloudy 45 7 43 6 93 93 S 3 6 29.80 1009 6 10 0.00 0.00
1:20 pm 13:20 Cloudy 45 7 43 6 93 93 S 3 6 29.82 1010 6 10 0.00 0.00
1:50 pm 13:50 Cloudy 46 8 43 6 87 87 SSW 3 6 29.82 1010 6 10 0.00 0.00
2:20 pm 14:20 Cloudy 46 8 43 6 87 87 VRB 2 4 29.82 1010 6 10 0.00 0.00
2:50 pm 14:50 Cloudy 46 8 45 7 93 93 VRB 2 4 29.82 1010 6 10 0.00 0.00
3:20 pm 15:20 Mostly Sunny 46 8 43 6 87 87 S 3 6 29.85 1011 6 10 0.00 0.00
3:50 pm 15:50 Mostly Cloudy 46 8 43 6 87 87 S 3 6 29.85 1011 6 10 0.00 0.00
4:20 pm 16:20 Cloudy 46 8 43 6 87 87 SSE 3 6 29.85 1011 6 10 0.00 0.00
4:50 pm 16:50 Mostly Cloudy 45 7 43 6 93 93 S 3 6 29.85 1011 6 10 0.00 0.00
5:20 pm 17:20 Mostly Cloudy 45 7 43 6 93 93 S 5 7 29.88 1012 6 10 0.00 0.00
5:50 pm 17:50 Partly Cloudy 43 6 43 6 100 100 SSE 5 7 29.88 1012 6 10 0.00 0.00
6:20 pm 18:20 Mostly Clear 43 6 43 6 100 100 SSE 3 6 29.88 1012 6 10 0.00 0.00
6:50 pm 18:50 Clear 43 6 41 5 93 93 SSE 6 9 29.88 1012 4 7 0.00 0.00
7:20 pm 19:20 Clear 41 5 41 5 100 100 S 3 6 29.88 1012 6 9 0.00 0.00
7:50 pm 19:50 Mostly Clear with Mist and Fog 41 5 41 5 100 100 VRB 2 4 29.88 1012 2 3 0.00 0.00
8:20 pm 20:20 Mostly Cloudy with Fog 41 5 39 4 93 93 SSE 3 6 29.91 1013 1 1 0.00 0.00
8:50 pm 20:50 Mostly Clear with Fog 39 4 37 3 93 93 S 3 6 29.91 1013 0 0 0.00 0.00
9:20 pm 21:20 Mostly Clear 37 3 37 3 100 100 VRB 1 2 29.91 1013 0 1 0.00 0.00
9:50 pm 21:50 Mostly Clear 36 2 36 2 100 100 VRB 2 4 29.91 1013 0 0 0.00 0.00
10:20 pm 22:20 Mostly Clear 36 2 36 2 100 100 VRB 2 4 29.94 1014 0 1 0.00 0.00
10:50 pm 22:50 Mostly Clear 36 2 36 2 100 100 SSE 3 6 29.94 1014 0 1 0.00 0.00
11:20 pm 23:20 Mostly Clear 37 3 37 3 100 100 SSE 6 9 29.94 1014 0 0 0.00 0.00
11:50 pm 23:50 Mostly Clear 37 3 37 3 100 100 SSE 5 7 29.94 1014 0 1 0.00 0.00

Powered by AerisWeather